FLOCK 2K-08 (42863 NORAD) Tracking and Keplerian Element Data

This shows tracking and keplerian element data for the satellite.

Feedback or suggestion? Click here.




ElementValue
Catalog42863
NameFLOCK 2K-08
Epoch Orbit15571
Epoch Day114.91255205
Epoch Year2020
RAAN345.8802
Inclination96.9
Eccentricity0.0009586
Argument of Perigee161.4743
Mean Anonmoly198.6856
Mean Motion15.41532655
Decay Rate4.655E-05
L11 42863U 17042AQ 20114.91255205 .00004655 00000-0 11265-3 0 9992
L22 42863 96.9000 345.8802 0009586 161.4743 198.6856 15.41532655155712



Live tracking and technical data element details for FLOCK 2K-08 (NORAD 42863). FLOCK 2K-08 can be tracked NOW for your location showing map with azimuth and elevation plus other details from your city location.







IsCatalogInMostPopularTable: catalog: 42863, numindb: 582
Update: records affected: 1



GetName: 42863 FLOCK 2K-08

Hit Count: updated at: Thu, 15 May 2025 09:33:53 GMT